sat.trackr.live / text

‹ back to catalog

JACK E

NORAD 66654 · 2025-274E

PAYLOAD ACTIVE UNKNOWN

§ Identity

Operator
Country
SKOR
Launch date
2025-11-26
Launch site
NSC
Launch vehicle
Mass (kg)
RCS (m²)

External: N2YO · Heavens-Above · Gunter

§ Orbital elements

Epoch: 2026-09-20T06:21:49.096512Z

Period
96.43 min
Inclination
97.7488°
Eccentricity
0.0014215
Mean motion
14.93369388 rev/d
Perigee alt
577.5 km
Apogee alt
597.3 km
Semi-major
6,965.6 km
B*
1.2018e-4
RAAN
191.0319°
Arg perigee
45.3436°
Mean anomaly
314.8940°
Rev number
4,440

§ Raw data

JACK E1 66654U 25274E   26263.26515158  .00001206  00000+0  12018-3 0  99922 66654  97.7488 191.0319 0014215  45.3436 314.8940 14.93369388 44409

JSON: /api/v1/satellites/66654 · /tle

For live sub-satellite position, see the globe view (requires WebGL).

§ Visibility from observer

Set your observer location to see the next 7 days of passes ≥ 10°. The values pass through the URL so the page stays shareable.

No JS? Fill the form by hand. The geolocation button needs JavaScript.